Weather History for Barking Sands, HI

Change the Weather History Date:

Tuesday, January 29, 2013

  Actual Average Record
Temperature  
Mean Temperature 72 °F -  
Max Temperature 81 °F 80 °F 83 °F (1975)
Min Temperature 64 °F 61 °F 55 °F (1966)
Cooling Degree Days 8    
Growing Degree Days 22 (Base 50)    
Moisture  
Dew Point 64 °F    
Average Humidity 76    
Maximum Humidity 100    
Minimum Humidity 54    
Precipitation  
Precipitation 0.00 in - - ()
Sea Level Pressure  
Sea Level Pressure 29.98 in    
Wind  
Wind Speed 5 mph (NNE)    
Max Wind Speed 22 mph    
Max Gust Speed 28 mph    
Visibility 10 miles    
Events      
Averages and records for this station are not official NWS values.
T = Trace of Precipitation, MM = Missing Value Source: NWS Daily Summary

Daily Weather History Graph

Daily Weather History Graph

Search for Another Location

Airport:

Trip Planner

Search our weather history database for the weather conditions in past years. The results will help you decide how hot, cold, wet, or windy it might be!

Date:

Astronomy

Jan. 29, 2013 Rise Set
Actual Time 7:18 AM HST 6:26 PM HST
Civil Twilight 6:54 AM HST 6:50 PM HST
Nautical Twilight 6:28 AM HST 7:16 PM HST
Astronomical Twilight 6:01 AM HST 7:43 PM HST
Moon 9:04 PM HST (1/29) 8:47 AM HST (1/29)
Length of Visible Light 11h 55m
Length of Day
11h 08m
Waning Gibbous, 92% of the Moon is Illuminated
Jan 29
Waning Gibbous
Feb 3
Last Quarter
Feb 9
New
Feb 17
First Quarter
Feb 25
Full

Hourly Weather History & Observations

Time (HST) Temp. Heat Index Dew Point Humidity Pressure Visibility Wind Dir Wind Speed Gust Speed Precip Events Conditions
12:56 AM 66.9 °F - 64.9 °F 93% 29.96 in 10.0 mi Calm Calm - N/A   Clear
1:56 AM 68.0 °F - 61.0 °F 78% 29.95 in 10.0 mi ENE 5.8 mph - N/A   Overcast
2:56 AM 66.9 °F - 64.0 °F 90% 29.94 in 10.0 mi Calm Calm - N/A   Mostly Cloudy
3:56 AM 66.9 °F - 61.0 °F 81% 29.94 in 10.0 mi Calm Calm - N/A   Clear
4:56 AM 64.9 °F - 63.0 °F 93% 29.94 in 10.0 mi Calm Calm - N/A   Clear
5:56 AM 64.9 °F - 59.0 °F 81% 29.95 in 10.0 mi ENE 3.5 mph - N/A   Clear
6:56 AM 64.0 °F - 59.0 °F 84% 29.96 in 10.0 mi East 3.5 mph - N/A   Clear
7:56 AM 66.0 °F - 63.0 °F 90% 29.98 in 10.0 mi ENE 5.8 mph - N/A   Clear
8:56 AM 73.0 °F - 64.0 °F 73% 29.99 in 10.0 mi Calm Calm - N/A   Clear
9:31 AM 75.2 °F - 64.4 °F 69% 29.99 in 10.0 mi Calm Calm - N/A   Partly Cloudy
9:56 AM 75.0 °F - 66.0 °F 73% 30.00 in 10.0 mi West 5.8 mph - N/A   Partly Cloudy
10:56 AM 75.9 °F - 61.0 °F 60% 30.00 in 10.0 mi WNW 4.6 mph - N/A   Clear
11:48 AM 78.8 °F - 64.4 °F 61% 29.97 in 10.0 mi North 10.4 mph - N/A   Mostly Cloudy
11:56 AM 78.1 °F - 66.0 °F 66% 29.98 in 10.0 mi NNW 8.1 mph 17.3 mph N/A   Scattered Clouds
12:56 PM 81.0 °F 82.2 °F 63.0 °F 54% 29.96 in 10.0 mi North 15.0 mph - N/A   Clear
1:56 PM 80.1 °F 81.7 °F 64.0 °F 58% 29.93 in 10.0 mi North 15.0 mph - N/A   Clear
2:56 PM 80.1 °F 82.1 °F 66.0 °F 62% 29.93 in 10.0 mi North 21.9 mph 27.6 mph N/A   Clear
3:56 PM 79.0 °F - 64.9 °F 62% 29.92 in 10.0 mi North 21.9 mph - N/A   Clear
4:56 PM 79.0 °F - 64.9 °F 62% 29.94 in 10.0 mi North 17.3 mph - N/A   Scattered Clouds
5:56 PM 77.0 °F - 66.0 °F 69% 29.96 in 10.0 mi SSE 6.9 mph - N/A   Mostly Cloudy
6:56 PM 75.0 °F - 68.0 °F 79% 29.99 in 10.0 mi Calm Calm - N/A   Mostly Cloudy
7:10 PM 75.2 °F - 69.8 °F 83% 29.98 in 10.0 mi Calm Calm - N/A   Overcast
7:56 PM 73.9 °F - 64.9 °F 73% 30.01 in 10.0 mi NNE 4.6 mph - N/A   Overcast
8:19 PM 73.4 °F - 68.0 °F 83% 30.01 in 10.0 mi NNE 6.9 mph - N/A   Partly Cloudy
8:56 PM 73.0 °F - 64.9 °F 76% 30.03 in 10.0 mi North 5.8 mph - N/A   Clear
9:56 PM 73.0 °F - 73.0 °F 100% 30.04 in 10.0 mi North 15.0 mph - N/A   Scattered Clouds
10:56 PM 70.0 °F - 64.9 °F 84% 30.04 in 10.0 mi NNE 5.8 mph - N/A   Clear
11:56 PM 68.0 °F - 61.0 °F 78% 30.03 in 10.0 mi Calm Calm - N/A   Clear